Location: Newport
(44.6370°N, 124.0520°W)
Time: 16:52:33
(UTC-08:00)

Envisat - Pass Details

Date: 10 October 2017
Orbit: 764 x 766 km, 98.2° (Epoch: 14 December)

Event Time Altitude Azimuth Distance (km) Brightness Sun altitude
Exits shadow 21:28:14 52° 253° (WSW) 948 3.6 -30.3°
Maximum altitude 21:28:24 52° 260° (W) 945 3.6 -30.3°
Drops below altitude 10° 21:33:23 10° 337° (NNW) 2,315 6.0 -31.2°
Sets 21:35:45 0° 343° (NNW) 3,246 6.8 -31.6°
